Starlink 33643

operational
NORAD ID: 63381 Int'l Des: 2025-063 Owner: SPXS Country: US Constellation: starlink
LEOCIRCULAR

关于 Starlink 33643

正在加载描述...

实时位置

正在加载3D地球...

即将过境

高度历史

Altitude vs Time

uPlot chart will show altitude changes over time

两行轨道根数

1 63381U 25063U 25258.41635503 .00087249 00000-0 21616-2 0 9994
2 63381 53.1565 147.3473 0001058 65.4493 294.6622 15.39686750 27912
Epoch: Sep 15, 2025 • Age: 17 hours

当前状态

高度 450.0 km
速度 7.65 km/s
星下点 42.28°N, 140.64°E
发射日期 Mar 26, 2025
运行时间 0.4 years
类型 internet

技术详情

分类 Payload
质量 575.00 kg
干质量 530.00 kg
总质量 575.00 kg
长度 0.30 m
直径 4.10 m
跨度 29.00 m
形状 Box + pan
制造商 SPXS
平台类型 Starlink V2MO
阶段状态 In Orbit
所有者/国家 SPXS/US

大型星座

Loading constellations...